Starlink 32462

operational
NORAD ID: 62129 Int'l Des: 2024-222 Owner: SPXS Country: US Constellation: starlink
LEOCIRCULAR

关于 Starlink 32462

正在加载描述...

实时位置

正在加载3D地球...

即将过境

高度历史

Altitude vs Time

uPlot chart will show altitude changes over time

两行轨道根数

1 62129U 24222R 25308.84219831 .00029035 00000-0 10597-2 0 9999
2 62129 43.0012 117.9273 0001683 266.6856 93.3804 15.27604235 53694
Epoch: Nov 4, 2025 • Age: 7 hours

当前状态

高度 484.9 km
速度 7.62 km/s
星下点 -13.04°S, 144.43°W
发射日期 Nov 27, 2024
运行时间 0.9 years
类型 internet

技术详情

分类 Payload
质量 730.00 kg
干质量 700.00 kg
总质量 730.00 kg
长度 0.30 m
直径 4.10 m
跨度 29.00 m
形状 Box + pan
制造商 SPXS
平台类型 Starlink V2M
阶段状态 In Orbit
所有者/国家 SPXS/US

大型星座

Loading constellations...